Hourly Data Report for April 06, 2021

OTTAWA INTL A
ONTARIO
Current Station Operator: NAVCAN

45°19'00.000" N
75°40'00.000" W
114.90 m
6106001
71628
YOW

Download Data

Hourly Data (April 2021)
Hourly Data Report for April 6, 2021
TIME
LST
Temp Definition
°C
Dew Point Definition
°C
Rel Hum Definition
%
Precip. Amount Definition
mm

Wind Dir Definition
10's deg

Wind Spd Definition
km/h
Visibility Definition
km
Stn Press Definition
kPa
Hmdx Definition


Wind Chill Definition


Weather Definition


00:00 6.3 -8.0 35   35 15 24.1 100.41     LegendNANA
01:00 5.0 -8.3 38   34 12 24.1 100.39     Clear
02:00 2.6 -8.5 44   32 14 24.1 100.37     LegendNANA
03:00 -0.1 -8.4 54   31 16 24.1 100.33   -5 LegendNANA
04:00 -0.3 -8.5 54   32 13 24.1 100.34   -4 Clear
05:00 1.5 -8.5 47   33 16 24.1 100.40     LegendNANA
06:00 -0.8 -6.3 67   29 13 24.1 100.48   -5 LegendNANA
07:00 3.2 -7.1 47   33 16 24.1 100.50     Clear
08:00 5.1 -7.7 39   35 17 24.1 100.50     LegendNANA
09:00 7.1 -7.0 36   32 13 24.1 100.50     LegendNANA
10:00 8.3 -7.6 32   1 12 24.1 100.48     Clear
11:00 10.3 -7.2 29   31 5 24.1 100.39     LegendNANA
12:00 11.7 -7.6 25   33 7 24.1 100.32     LegendNANA
13:00 13.3 -7.8 22   33 9 24.1 100.24     Mainly Clear
14:00 14.2 -8.1 20   30 6 24.1 100.22     LegendNANA
15:00 14.9 -8.3 19   25 5 24.1 100.18     LegendNANA
16:00 15.8 -9.8 16   32 10 24.1 100.17     Mainly Clear
17:00 14.8 -9.3 18   24 13 24.1 100.18     LegendNANA
18:00 11.9 -7.7 25   25 8 24.1 100.22     LegendNANA
19:00 10.9 -8.7 24   22 4 24.1 100.23     Mainly Clear
20:00 7.3 -7.7 34   19 7 24.1 100.28     LegendNANA
21:00 8.4 -8.0 31   26 4 24.1 100.29     LegendNANA
22:00 7.6 -6.9 35   28 6 24.1 100.29     Mainly Clear
23:00 4.3 -4.5 53   36 3 24.1 100.28     LegendNANA

Notes on Data Quality.

Legend

  • E = Estimated
  • M = Missing
  • NA = Not Available*
  • [empty] = Indicates an unobserved value
Date modified: